{"data":{"norad_id":69559,"epoch":"2026-09-19T19:10:09.620544Z","epoch_age_seconds":82254,"freshness":"FRESH","line1":"1 69559U 26135P   26262.79872246  .00021993  00000+0  68131-3 0  9999","line2":"2 69559  97.2839 290.5124 0001294 107.8117 252.3267 15.33457578 14895","mean_motion":15.33457578,"eccentricity":0.0001294,"inclination_deg":97.2839,"raan_deg":290.5124,"arg_perigee_deg":107.8117,"mean_anomaly_deg":252.3267,"bstar":0.00068131,"rev_number":1489,"period_min":93.905434402568,"perigee_km":464.62018408327,"apogee_km":466.39131882735,"semimajor_km":6843.6427514553,"source":"CELESTRAK","updated_at":"2026-09-20T09:00:44.244240Z"}}